| time (UTC) | temp C | wind direction | speed KPH | gust KPH | rain 1hr cm | rain 24hr cm | rain mn cm | humidity % | barometer mb |
| 20260503220045 | 19 | 257 | 11.3 | 32.2 | 0.00 | 0.00 | 0.00 | 43 | 1004.7 |
| 20260503214535 | 18 | 240 | 16.1 | 38.6 | 0.00 | 0.00 | 0.00 | 43 | 1004.9 |
| 20260503213035 | 18 | 246 | 17.7 | 35.4 | 0.00 | 0.00 | 0.00 | 42 | 1005.1 |
| 20260503211541 | 18 | 240 | 20.9 | 38.6 | 0.00 | 0.00 | 0.00 | 42 | 1005.0 |
| 20260503210039 | 18 | 241 | 19.3 | 35.4 | 0.00 | 0.00 | 0.00 | 44 | 1005.2 |
| 20260503204539 | 18 | 229 | 16.1 | 33.8 | 0.00 | 0.00 | 0.00 | 48 | 1005.6 |
| 20260503203052 | 17 | 212 | 19.3 | 37.0 | 0.00 | 0.00 | 0.00 | 50 | 1006.0 |
| 20260503201538 | 17 | 218 | 17.7 | 38.6 | 0.00 | 0.00 | 0.00 | 48 | 1006.2 |
| 20260503200035 | 17 | 238 | 19.3 | 43.5 | 0.00 | 0.00 | 0.00 | 47 | 1006.7 |
| 20260503194541 | 17 | 203 | 19.3 | 40.2 | 0.00 | 0.00 | 0.00 | 45 | 1006.5 |
| 20260503193038 | 17 | 214 | 25.7 | 43.5 | 0.00 | 0.00 | 0.00 | 42 | 1006.6 |
| 20260503191545 | 17 | 235 | 16.1 | 48.3 | 0.00 | 0.00 | 0.00 | 42 | 1006.7 |
| 20260503190043 | 17 | 260 | 19.3 | 37.0 | 0.00 | 0.00 | 0.00 | 41 | 1007.0 |
| 20260503184536 | 17 | 277 | 27.4 | 45.1 | 0.00 | 0.00 | 0.00 | 43 | 1007.0 |
| 20260503183036 | 16 | 217 | 19.3 | 37.0 | 0.00 | 0.00 | 0.00 | 46 | 1007.3 |
| 20260503181546 | 16 | 242 | 20.9 | 40.2 | 0.00 | 0.00 | 0.00 | 50 | 1007.6 |
| 20260503180039 | 15 | 234 | 17.7 | 27.4 | 0.00 | 0.00 | 0.00 | 53 | 1007.9 |
| 20260503174539 | 15 | 184 | 17.7 | 33.8 | 0.00 | 0.00 | 0.00 | 54 | 1008.0 |
| 20260503173037 | 14 | 257 | 14.5 | 40.2 | 0.00 | 0.00 | 0.00 | 55 | 1008.5 |
| 20260503171536 | 13 | 204 | 14.5 | 30.6 | 0.00 | 0.00 | 0.00 | 59 | 1008.8 |
| 20260503081541 | 8 | 225 | 9.7 | 17.7 | 0.00 | 0.00 | 0.00 | 51 | 1012.6 |
| 20260503080158 | 8 | 269 | 6.4 | 12.9 | 0.00 | 0.00 | 0.00 | 52 | 1012.6 |
| 20260503071536 | 8 | 248 | 8.0 | 14.5 | 0.00 | 0.00 | 0.00 | 53 | 1012.8 |
| 20260503060106 | 6 | 233 | 1.6 | 8.0 | 0.00 | 0.00 | 0.00 | 61 | 1013.4 |
| 20260503054553 | 6 | 220 | 3.2 | 9.7 | 0.00 | 0.00 | 0.00 | 61 | 1013.5 |
| 20260503053038 | 6 | 226 | 3.2 | 6.4 | 0.00 | 0.00 | 0.00 | 63 | 1013.6 |
| 20260503051539 | 6 | 228 | 3.2 | 6.4 | 0.00 | 0.00 | 0.00 | 65 | 1013.7 |
| 20260503050038 | 5 | 220 | 3.2 | 4.8 | 0.00 | 0.00 | 0.00 | 68 | 1013.8 |
| 20260503044536 | 5 | 222 | 1.6 | 4.8 | 0.00 | 0.00 | 0.00 | 70 | 1013.8 |
| 20260503043037 | 5 | 214 | 1.6 | 6.4 | 0.00 | 0.00 | 0.00 | 71 | 1013.9 |
| 20260503041535 | 5 | 223 | 1.6 | 4.8 | 0.00 | 0.00 | 0.00 | 71 | 1014.0 |
| 20260503040041 | 5 | 229 | 1.6 | 6.4 | 0.00 | 0.00 | 0.00 | 72 | 1014.1 |
| 20260503034539 | 5 | 228 | 3.2 | 6.4 | 0.00 | 0.00 | 0.00 | 72 | 1014.2 |
| 20260503033037 | 5 | 213 | 1.6 | 4.8 | 0.00 | 0.00 | 0.00 | 72 | 1014.3 |
| 20260503031539 | 5 | 216 | 3.2 | 4.8 | 0.00 | 0.00 | 0.00 | 72 | 1014.5 |
| 20260503030042 | 6 | 214 | 3.2 | 8.0 | 0.00 | 0.00 | 0.00 | 72 | 1014.6 |
| 20260503024540 | 6 | 211 | 1.6 | 8.0 | 0.00 | 0.00 | 0.00 | 71 | 1014.6 |
| 20260503023039 | 6 | 201 | 3.2 | 11.3 | 0.00 | 0.00 | 0.00 | 70 | 1014.7 |
| 20260503021541 | 6 | 212 | 3.2 | 6.4 | 0.00 | 0.00 | 0.00 | 69 | 1014.7 |
| 20260503020037 | 6 | 193 | 3.2 | 11.3 | 0.00 | 0.00 | 0.00 | 68 | 1014.6 |
| 20260503014535 | 6 | 219 | 4.8 | 9.7 | 0.00 | 0.00 | 0.00 | 67 | 1014.5 |
| 20260503013035 | 6 | 164 | 3.2 | 6.4 | 0.00 | 0.00 | 0.00 | 65 | 1014.6 |
| 20260503011539 | 7 | 167 | 1.6 | 4.8 | 0.00 | 0.00 | 0.00 | 63 | 1014.5 |
| 20260503010039 | 7 | 213 | 1.6 | 6.4 | 0.00 | 0.00 | 0.00 | 62 | 1014.5 |
| 20260503004537 | 7 | 233 | 1.6 | 6.4 | 0.00 | 0.00 | 0.00 | 59 | 1014.5 |
| 20260503003037 | 8 | 156 | 4.8 | 9.7 | 0.00 | 0.00 | 0.00 | 56 | 1014.6 |
| 20260503001536 | 9 | 156 | 3.2 | 9.7 | 0.00 | 0.00 | 0.00 | 54 | 1014.8 |
| 20260503000035 | 9 | 219 | 6.4 | 11.3 | 0.00 | 0.00 | 0.00 | 53 | 1014.6 |
| 20260502234549 | 9 | 162 | 1.6 | 11.3 | 0.00 | 0.00 | 0.00 | 52 | 1014.9 |
| 20260502233039 | 10 | 158 | 8.0 | 14.5 | 0.00 | 0.00 | 0.00 | 50 | 1015.2 |
| 20260502231538 | 10 | 152 | 6.4 | 16.1 | 0.00 | 0.00 | 0.00 | 49 | 1015.3 |
| 20260502230036 | 10 | 200 | 6.4 | 19.3 | 0.00 | 0.00 | 0.00 | 49 | 1015.4 |
| 20260502224535 | 10 | 203 | 9.7 | 17.7 | 0.00 | 0.00 | 0.00 | 49 | 1015.5 |
| 20260502223040 | 10 | 115 | 4.8 | 12.9 | 0.00 | 0.00 | 0.00 | 49 | 1015.6 |
| 20260502221541 | 10 | 129 | 6.4 | 17.7 | 0.00 | 0.00 | 0.00 | 49 | 1015.7 |